Weather in Ikhala

Russia / Republic of Karelia     61°29′53″N   30°00′00″E
temp.,
°C
wind,
m/s
gust,
m/s
humid.,
%
clouds,
%
prec.,
mm/h
press.,
hPa
HPBL,
m
3 march, wed
wed300:00−1wnw412871 0.0 1015544
03:00−2wnw412871 0.0 1015552
06:00−2wnw412904 0.0 1013527
09:00−3w4129024 0.0 1012456
12:000w5118065 0.0 1009641
15:00+1w6128082 0.0 10061055
18:00+1wnw61481100 0.1 10031248
21:00−2nw5127083 0.2 1003831
4 march, thu
thu400:00−4nw412750 0.0 1003582
03:00−5nw310820 0.0 1003404
06:00−6nw39900 0.0 1003352
09:00−7nnw378931 0.1 1003430
12:00−5nnw478197 0.1 1004606
15:00−4nnw477799 0.1 1005795
18:00−5nnw3880100 0.1 1005815
21:00−7nnw398677 0.1 1006619
5 march, fri
fri500:00−8nnw388884 0.0 1006459
03:00−8nw388973 0.0 1008451
06:00−9nnw388888 0.1 1008485
09:00−10nnw388893 0.1 1010379
12:00−8nnw248097 0.0 1011390
15:00−6nw347178 0.0 1013699
18:00−7nw268251 0.0 1013518
21:00−8nw289040 0.0 1015268
6 march, sat
sat600:00−9wnw26910 0.0 1015198
03:00−10w26920 0.0 1015159
06:00−10wsw259419 0.0 1013147
09:00−9sw388819 0.0 1010305
12:00−6ssw4107984 0.0 1006539
15:00−4ssw6139192 0.6 10001113
18:00−3sw41196100 1.6 993776
21:00−1wsw41193100 2.4 989677
7 march, sun
sun700:00−3ssw3897100 0.2 984319
03:00−2w31178100 2.9 9801107
06:00−9s4109050 0.1 978586
09:00−9n369073 0.4 979386
12:00−5n71288100 0.9 9831001
15:00−7n81483100 1.6 9891182
18:00−10n71479100 0.1 9961056
21:00−12n71581100 0.1 1001914